Time,TemperatureF,DewpointF,PressureIn,WindDirection,WindDirectionDegrees,WindSpeedMPH,WindSpeedGustMPH,Humidity,HourlyPrecipIn,Conditions,Clouds,dailyrainin,SoftwareType,DateUTC
2013-03-16 00:00:00,61.0,33.1,30.09,South,180,0.0,0.0,35,0.00,CLR,,0.00,WeatherDisplay:10.37,2013-03-16 05:00:00,
2013-03-16 00:05:00,60.6,32.8,30.09,South,180,0.0,0.0,35,0.00,CLR,,0.00,WeatherDisplay:10.37,2013-03-16 05:05:00,
2013-03-16 00:10:00,60.6,32.8,30.09,South,180,0.0,0.0,35,0.00,CLR,,0.00,WeatherDisplay:10.37,2013-03-16 05:10:00,
2013-03-16 00:15:00,60.6,32.8,30.09,South,180,0.0,0.0,35,0.00,CLR,,0.00,WeatherDisplay:10.37,2013-03-16 05:15:00,
2013-03-16 00:20:00,60.6,32.8,30.06,South,180,0.0,0.0,35,0.00,CLR,,0.00,WeatherDisplay:10.37,2013-03-16 05:20:00,
2013-03-16 00:25:00,60.6,32.8,30.06,South,180,0.0,0.0,35,0.00,CLR,,0.00,WeatherDisplay:10.37,2013-03-16 05:25:00,
2013-03-16 00:30:00,60.6,32.8,30.06,South,180,0.0,0.0,35,0.00,CLR,,0.00,WeatherDisplay:10.37,2013-03-16 05:30:00,
2013-03-16 00:35:00,60.6,32.8,30.09,South,180,0.0,0.0,35,0.00,CLR,,0.00,WeatherDisplay:10.37,2013-03-16 05:35:00,
2013-03-16 00:40:00,60.6,32.8,30.09,South,180,0.0,0.0,35,0.00,CLR,,0.00,WeatherDisplay:10.37,2013-03-16 05:40:00,
2013-03-16 00:45:00,60.6,32.8,30.09,South,180,0.0,0.0,35,0.00,CLR,,0.00,WeatherDisplay:10.37,2013-03-16 05:45:00,
2013-03-16 00:51:00,60.6,32.8,30.09,South,180,0.0,0.0,35,0.00,CLR,,0.00,WeatherDisplay:10.37,2013-03-16 05:51:00,
2013-03-16 00:57:00,60.6,32.8,30.09,South,180,0.0,0.0,35,0.00,CLR,,0.00,WeatherDisplay:10.37,2013-03-16 05:57:00,
2013-03-16 01:02:00,60.6,32.8,30.09,South,180,0.0,0.0,35,0.00,CLR,,0.00,WeatherDisplay:10.37,2013-03-16 06:02:00,
2013-03-16 01:07:00,60.6,32.8,30.09,South,180,0.0,0.0,35,0.00,CLR,,0.00,WeatherDisplay:10.37,2013-03-16 06:07:00,
2013-03-16 01:12:00,60.6,32.8,30.09,South,180,0.0,0.0,35,0.00,CLR,,0.00,WeatherDisplay:10.37,2013-03-16 06:12:00,
2013-03-16 01:17:00,60.6,32.8,30.09,South,180,0.0,0.0,35,0.00,CLR,,0.00,WeatherDisplay:10.37,2013-03-16 06:17:00,
2013-03-16 01:22:00,60.6,32.8,30.09,South,180,0.0,0.0,35,0.00,CLR,,0.00,WeatherDisplay:10.37,2013-03-16 06:22:00,
2013-03-16 01:27:00,60.6,32.8,30.09,South,180,0.0,0.0,35,0.00,CLR,,0.00,WeatherDisplay:10.37,2013-03-16 06:27:00,
2013-03-16 01:32:00,59.9,32.9,30.06,WNW,292,0.0,0.0,36,0.00,CLR,,0.00,WeatherDisplay:10.37,2013-03-16 06:32:00,
2013-03-16 01:37:00,59.9,32.9,30.06,WNW,292,0.0,0.0,36,0.00,CLR,,0.00,WeatherDisplay:10.37,2013-03-16 06:37:00,
2013-03-16 01:42:00,59.9,32.9,30.06,WNW,292,0.0,0.0,36,0.00,CLR,,0.00,WeatherDisplay:10.37,2013-03-16 06:42:00,
2013-03-16 01:47:00,59.5,32.5,30.09,SE,135,0.0,2.2,36,0.00,CLR,,0.00,WeatherDisplay:10.37,2013-03-16 06:47:00,
2013-03-16 01:52:00,59.7,33.4,30.09,SE,135,0.0,2.2,37,0.00,CLR,,0.00,WeatherDisplay:10.37,2013-03-16 06:52:00,
2013-03-16 01:57:00,59.7,33.4,30.09,SE,135,0.0,2.2,37,0.00,CLR,,0.00,WeatherDisplay:10.37,2013-03-16 06:57:00,
2013-03-16 02:02:00,59.7,33.4,30.09,SE,135,0.0,2.2,37,0.00,CLR,,0.00,WeatherDisplay:10.37,2013-03-16 07:02:00,
2013-03-16 02:07:00,59.7,33.4,30.09,SE,135,0.0,2.2,37,0.00,CLR,,0.00,WeatherDisplay:10.37,2013-03-16 07:07:00,
2013-03-16 02:12:00,59.7,33.4,30.09,SE,135,0.0,2.2,37,0.00,CLR,,0.00,WeatherDisplay:10.37,2013-03-16 07:12:00,
2013-03-16 02:17:00,59.7,33.4,30.06,SW,225,1.2,0.0,37,0.00,CLR,,0.00,WeatherDisplay:10.37,2013-03-16 07:17:00,
2013-03-16 02:22:00,59.7,33.4,30.06,SW,225,1.2,0.0,37,0.00,CLR,,0.00,WeatherDisplay:10.37,2013-03-16 07:22:00,
2013-03-16 02:27:00,59.7,33.4,30.06,SW,225,1.2,0.0,37,0.00,CLR,,0.00,WeatherDisplay:10.37,2013-03-16 07:27:00,
2013-03-16 02:32:00,59.7,33.4,30.06,SW,225,1.2,0.0,37,0.00,CLR,,0.00,WeatherDisplay:10.37,2013-03-16 07:32:00,
2013-03-16 02:37:00,59.7,33.4,30.06,SW,225,1.2,0.0,37,0.00,CLR,,0.00,WeatherDisplay:10.37,2013-03-16 07:37:00,
2013-03-16 02:42:00,59.7,33.4,30.06,SW,225,1.2,0.0,37,0.00,CLR,,0.00,WeatherDisplay:10.37,2013-03-16 07:42:00,
2013-03-16 02:47:00,59.7,33.4,30.06,SW,225,1.2,0.0,37,0.00,CLR,,0.00,WeatherDisplay:10.37,2013-03-16 07:47:00,
2013-03-16 02:52:00,59.7,33.4,30.06,SW,225,1.2,0.0,37,0.00,CLR,,0.00,WeatherDisplay:10.37,2013-03-16 07:52:00,
2013-03-16 02:57:00,59.7,33.4,30.06,SW,225,1.2,0.0,37,0.00,CLR,,0.00,WeatherDisplay:10.37,2013-03-16 07:57:00,
2013-03-16 03:03:00,59.7,33.4,30.06,SW,225,1.2,0.0,37,0.00,CLR,,0.00,WeatherDisplay:10.37,2013-03-16 08:03:00,
2013-03-16 03:08:00,59.7,33.4,30.06,SW,225,1.2,0.0,37,0.00,CLR,,0.00,WeatherDisplay:10.37,2013-03-16 08:08:00,
2013-03-16 03:13:00,59.7,33.4,30.06,SW,225,1.2,0.0,37,0.00,CLR,,0.00,WeatherDisplay:10.37,2013-03-16 08:13:00,
2013-03-16 03:18:00,59.7,33.4,30.06,SW,225,1.2,0.0,37,0.00,CLR,,0.00,WeatherDisplay:10.37,2013-03-16 08:18:00,
2013-03-16 03:23:00,59.7,33.4,30.06,SW,225,1.2,0.0,37,0.00,CLR,,0.00,WeatherDisplay:10.37,2013-03-16 08:23:00,
2013-03-16 03:28:00,59.7,33.4,30.06,SW,225,1.2,0.0,37,0.00,CLR,,0.00,WeatherDisplay:10.37,2013-03-16 08:28:00,
2013-03-16 03:33:00,59.7,33.4,30.06,SW,225,1.2,0.0,37,0.00,CLR,,0.00,WeatherDisplay:10.37,2013-03-16 08:33:00,
2013-03-16 03:38:00,59.7,33.4,30.06,SW,225,1.2,0.0,37,0.00,CLR,,0.00,WeatherDisplay:10.37,2013-03-16 08:38:00,
2013-03-16 03:43:00,59.7,33.4,30.06,SW,225,1.2,0.0,37,0.00,CLR,,0.00,WeatherDisplay:10.37,2013-03-16 08:43:00,
2013-03-16 03:48:00,59.7,33.4,30.06,SW,225,1.2,0.0,37,0.00,CLR,,0.00,WeatherDisplay:10.37,2013-03-16 08:48:00,
2013-03-16 03:53:00,58.5,32.9,30.06,SW,225,1.2,0.0,38,0.00,CLR,,0.00,WeatherDisplay:10.37,2013-03-16 08:53:00,
2013-03-16 03:58:00,58.5,32.9,30.06,SW,225,1.2,0.0,38,0.00,CLR,,0.00,WeatherDisplay:10.37,2013-03-16 08:58:00,
2013-03-16 04:03:00,58.5,32.9,30.03,SW,225,1.2,0.0,38,0.00,CLR,,0.00,WeatherDisplay:10.37,2013-03-16 09:03:00,
2013-03-16 04:08:00,58.5,32.9,30.03,SW,225,1.2,0.0,38,0.00,CLR,,0.00,WeatherDisplay:10.37,2013-03-16 09:08:00,
2013-03-16 04:13:00,58.5,32.9,30.03,SW,225,1.2,0.0,38,0.00,CLR,,0.00,WeatherDisplay:10.37,2013-03-16 09:13:00,
2013-03-16 04:18:00,58.5,32.9,30.03,SW,225,1.2,0.0,38,0.00,CLR,,0.00,WeatherDisplay:10.37,2013-03-16 09:18:00,
2013-03-16 04:23:00,58.5,32.9,30.03,SW,225,1.2,0.0,38,0.00,CLR,,0.00,WeatherDisplay:10.37,2013-03-16 09:23:00,
2013-03-16 04:28:00,58.5,32.9,30.03,SW,225,1.2,0.0,38,0.00,CLR,,0.00,WeatherDisplay:10.37,2013-03-16 09:28:00,
2013-03-16 04:33:00,58.3,32.8,30.03,SW,225,1.2,0.0,38,0.00,CLR,,0.00,WeatherDisplay:10.37,2013-03-16 09:33:00,
2013-03-16 04:38:00,58.3,32.8,30.03,SW,225,1.2,0.0,38,0.00,CLR,,0.00,WeatherDisplay:10.37,2013-03-16 09:38:00,
2013-03-16 04:43:00,58.3,32.8,30.03,SW,225,1.2,0.0,38,0.00,CLR,,0.00,WeatherDisplay:10.37,2013-03-16 09:43:00,
2013-03-16 04:48:00,58.3,32.8,30.03,SW,225,1.2,0.0,38,0.00,CLR,,0.00,WeatherDisplay:10.37,2013-03-16 09:48:00,
2013-03-16 04:53:00,58.3,32.8,30.03,SW,225,1.2,0.0,38,0.00,CLR,,0.00,WeatherDisplay:10.37,2013-03-16 09:53:00,
2013-03-16 04:58:00,58.3,32.8,30.03,SW,225,1.2,0.0,38,0.00,CLR,,0.00,WeatherDisplay:10.37,2013-03-16 09:58:00,
2013-03-16 05:03:00,58.3,32.8,30.03,SW,225,1.2,0.0,38,0.00,CLR,,0.00,WeatherDisplay:10.37,2013-03-16 10:03:00,
2013-03-16 05:08:00,58.3,32.8,30.03,SW,225,1.2,0.0,38,0.00,CLR,,0.00,WeatherDisplay:10.37,2013-03-16 10:08:00,
2013-03-16 05:13:00,58.3,32.8,30.03,SW,225,1.2,0.0,38,0.00,CLR,,0.00,WeatherDisplay:10.37,2013-03-16 10:13:00,
2013-03-16 05:18:00,58.3,32.8,30.03,SW,225,1.2,0.0,38,0.00,CLR,,0.00,WeatherDisplay:10.37,2013-03-16 10:18:00,
2013-03-16 05:23:00,58.3,32.8,30.03,SW,225,1.2,0.0,38,0.00,CLR,,0.00,WeatherDisplay:10.37,2013-03-16 10:23:00,
2013-03-16 05:28:00,58.3,32.8,30.03,SW,225,1.2,0.0,38,0.00,CLR,,0.00,WeatherDisplay:10.37,2013-03-16 10:28:00,
2013-03-16 05:33:00,58.3,32.8,30.03,SW,225,1.2,0.0,38,0.00,CLR,,0.00,WeatherDisplay:10.37,2013-03-16 10:33:00,
2013-03-16 05:38:00,58.3,32.8,30.03,SW,225,1.2,0.0,38,0.00,CLR,,0.00,WeatherDisplay:10.37,2013-03-16 10:38:00,
2013-03-16 05:43:00,58.3,32.8,30.03,SW,225,1.2,0.0,38,0.00,CLR,,0.00,WeatherDisplay:10.37,2013-03-16 10:43:00,
2013-03-16 05:48:00,58.3,32.8,30.03,SW,225,1.2,0.0,38,0.00,CLR,,0.00,WeatherDisplay:10.37,2013-03-16 10:48:00,
2013-03-16 05:53:00,58.3,32.8,30.03,SW,225,1.2,0.0,38,0.00,CLR,,0.00,WeatherDisplay:10.37,2013-03-16 10:53:00,
2013-03-16 05:58:00,58.3,32.8,30.03,SW,225,1.2,0.0,38,0.00,CLR,,0.00,WeatherDisplay:10.37,2013-03-16 10:58:00,
2013-03-16 06:03:00,58.3,32.8,30.03,SW,225,1.2,0.0,38,0.00,FEW,,0.00,WeatherDisplay:10.37,2013-03-16 11:03:00,
2013-03-16 06:08:00,58.3,32.8,30.03,SW,225,1.2,0.0,38,0.00,FEW,,0.00,WeatherDisplay:10.37,2013-03-16 11:08:00,
2013-03-16 06:13:00,58.3,32.8,30.03,SW,225,1.2,0.0,38,0.00,FEW,,0.00,WeatherDisplay:10.37,2013-03-16 11:13:00,
2013-03-16 06:18:00,58.3,32.8,30.03,SW,225,1.2,0.0,38,0.00,FEW,,0.00,WeatherDisplay:10.37,2013-03-16 11:18:00,
2013-03-16 06:23:00,58.3,32.8,30.03,SW,225,1.2,0.0,38,0.00,FEW,,0.00,WeatherDisplay:10.37,2013-03-16 11:23:00,
2013-03-16 06:28:00,58.3,32.8,30.03,SW,225,1.2,0.0,38,0.00,FEW,,0.00,WeatherDisplay:10.37,2013-03-16 11:28:00,
2013-03-16 06:33:00,58.3,32.8,30.06,SW,225,1.2,0.0,38,0.00,FEW,,0.00,WeatherDisplay:10.37,2013-03-16 11:33:00,
2013-03-16 06:38:00,58.3,32.8,30.06,SW,225,1.2,0.0,38,0.00,FEW,,0.00,WeatherDisplay:10.37,2013-03-16 11:38:00,
2013-03-16 06:43:00,58.3,32.8,30.06,SW,225,1.2,0.0,38,0.00,FEW,,0.00,WeatherDisplay:10.37,2013-03-16 11:43:00,
2013-03-16 06:48:00,58.3,32.8,30.06,SW,225,1.2,0.0,38,0.00,FEW,,0.00,WeatherDisplay:10.37,2013-03-16 11:48:00,
2013-03-16 06:53:00,58.3,32.8,30.06,SW,225,1.2,0.0,38,0.00,FEW,,0.00,WeatherDisplay:10.37,2013-03-16 11:53:00,
2013-03-16 06:58:00,58.3,32.8,30.06,SW,225,1.2,0.0,38,0.00,FEW,,0.00,WeatherDisplay:10.37,2013-03-16 11:58:00,
2013-03-16 07:03:00,58.3,32.8,30.06,SW,225,1.2,0.0,38,0.00,SCT,,0.00,WeatherDisplay:10.37,2013-03-16 12:03:00,
2013-03-16 07:08:00,58.3,32.8,30.06,SW,225,1.2,0.0,38,0.00,SCT,,0.00,WeatherDisplay:10.37,2013-03-16 12:08:00,
2013-03-16 07:13:00,58.3,32.8,30.06,SW,225,1.2,0.0,38,0.00,SCT,,0.00,WeatherDisplay:10.37,2013-03-16 12:13:00,
2013-03-16 07:18:00,58.3,32.8,30.06,SW,225,1.2,0.0,38,0.00,SCT,,0.00,WeatherDisplay:10.37,2013-03-16 12:18:00,
2013-03-16 07:24:00,58.3,32.8,30.06,SW,225,1.2,0.0,38,0.00,SCT,,0.00,WeatherDisplay:10.37,2013-03-16 12:24:00,
2013-03-16 07:29:00,57.9,33.7,30.06,SW,225,1.2,0.0,40,0.00,SCT,,0.00,WeatherDisplay:10.37,2013-03-16 12:29:00,
2013-03-16 07:34:00,57.9,33.7,30.06,SW,225,1.2,0.0,40,0.00,SCT,,0.00,WeatherDisplay:10.37,2013-03-16 12:34:00,
2013-03-16 07:39:00,58.1,33.9,30.06,SW,225,1.2,0.0,40,0.00,SCT,,0.00,WeatherDisplay:10.37,2013-03-16 12:39:00,
2013-03-16 07:44:00,58.3,34.0,30.06,SW,225,1.2,0.0,40,0.00,SCT,,0.00,WeatherDisplay:10.37,2013-03-16 12:44:00,
2013-03-16 07:49:00,58.5,34.2,30.06,SW,225,1.2,0.0,40,0.00,SCT,,0.00,WeatherDisplay:10.37,2013-03-16 12:49:00,
2013-03-16 07:54:00,58.8,35.2,30.06,SW,225,1.2,0.0,41,0.00,SCT,,0.00,WeatherDisplay:10.37,2013-03-16 12:54:00,
2013-03-16 07:59:00,59.0,34.7,30.06,SW,225,1.2,0.0,40,0.00,SCT,,0.00,WeatherDisplay:10.37,2013-03-16 12:59:00,
2013-03-16 08:04:00,59.0,34.7,30.06,SW,225,1.2,0.0,40,0.00,BKN,,0.00,WeatherDisplay:10.37,2013-03-16 13:04:00,
2013-03-16 08:09:00,59.0,34.7,30.06,SW,225,1.2,0.0,40,0.00,BKN,,0.00,WeatherDisplay:10.37,2013-03-16 13:09:00,
2013-03-16 08:14:00,59.0,34.7,30.06,SW,225,1.2,0.0,40,0.00,BKN,,0.00,WeatherDisplay:10.37,2013-03-16 13:14:00,
2013-03-16 08:19:00,59.0,34.7,30.06,SW,225,1.2,0.0,40,0.00,BKN,,0.00,WeatherDisplay:10.37,2013-03-16 13:19:00,
2013-03-16 08:24:00,63.3,39.2,30.06,SW,225,1.2,0.0,41,0.00,BKN,,0.00,WeatherDisplay:10.37,2013-03-16 13:24:00,
2013-03-16 08:29:00,64.4,39.5,30.06,SW,225,1.2,0.0,40,0.00,BKN,,0.00,WeatherDisplay:10.37,2013-03-16 13:29:00,
2013-03-16 08:34:00,65.3,40.3,30.06,SW,225,1.2,0.0,40,0.00,BKN,,0.00,WeatherDisplay:10.37,2013-03-16 13:34:00,
2013-03-16 08:39:00,66.0,39.7,30.06,SW,225,1.2,0.0,38,0.00,BKN,,0.00,WeatherDisplay:10.37,2013-03-16 13:39:00,
2013-03-16 08:44:00,66.4,38.6,30.06,SW,225,1.2,0.0,36,0.00,BKN,,0.00,WeatherDisplay:10.37,2013-03-16 13:44:00,
2013-03-16 08:49:00,67.3,37.9,30.06,SW,225,1.2,0.0,34,0.00,BKN,,0.00,WeatherDisplay:10.37,2013-03-16 13:49:00,
2013-03-16 08:54:00,68.0,37.0,30.06,SW,225,1.2,0.0,32,0.00,BKN,,0.00,WeatherDisplay:10.37,2013-03-16 13:54:00,
2013-03-16 08:59:00,68.0,31.8,30.06,SW,225,1.2,0.0,26,0.00,BKN,,0.00,WeatherDisplay:10.37,2013-03-16 13:59:00,
2013-03-16 09:04:00,68.9,31.6,30.06,SW,225,1.2,0.0,25,0.00,BKN,,0.00,WeatherDisplay:10.37,2013-03-16 14:04:00,
2013-03-16 09:09:00,69.8,30.3,30.06,West,270,1.2,1.2,23,0.00,BKN,,0.00,WeatherDisplay:10.37,2013-03-16 14:09:00,
2013-03-16 09:14:00,70.7,30.0,30.06,WSW,248,3.5,4.0,22,0.00,BKN,,0.00,WeatherDisplay:10.37,2013-03-16 14:14:00,
2013-03-16 09:19:00,71.1,30.3,30.09,WSW,248,3.5,4.0,22,0.00,BKN,,0.00,WeatherDisplay:10.37,2013-03-16 14:19:00,
2013-03-16 09:24:00,71.2,26.8,30.09,NNW,338,12.7,12.7,19,0.00,BKN,,0.00,WeatherDisplay:10.37,2013-03-16 14:24:00,
2013-03-16 09:29:00,71.4,27.0,30.09,WSW,248,2.3,4.0,19,0.00,BKN,,0.00,WeatherDisplay:10.37,2013-03-16 14:29:00,
2013-03-16 09:34:00,71.8,23.1,30.09,WNW,292,3.5,3.5,16,0.00,BKN,,0.00,WeatherDisplay:10.37,2013-03-16 14:34:00,
2013-03-16 09:39:00,72.5,23.7,30.09,WSW,248,3.8,3.8,16,0.00,BKN,,0.00,WeatherDisplay:10.37,2013-03-16 14:39:00,
2013-03-16 09:44:00,72.7,23.9,30.09,WSW,248,6.9,6.9,16,0.00,BKN,,0.00,WeatherDisplay:10.37,2013-03-16 14:44:00,
2013-03-16 09:49:00,72.5,23.7,30.09,SW,225,3.1,5.6,16,0.00,BKN,,0.00,WeatherDisplay:10.37,2013-03-16 14:49:00,
2013-03-16 09:54:00,72.7,23.9,30.09,WSW,248,8.1,8.1,16,0.00,BKN,,0.00,WeatherDisplay:10.37,2013-03-16 14:54:00,
2013-03-16 09:59:00,73.9,24.9,30.09,NW,315,5.8,5.8,16,0.00,BKN,,0.00,WeatherDisplay:10.37,2013-03-16 14:59:00,
2013-03-16 10:04:00,73.6,19.7,30.09,WNW,292,8.1,8.1,13,0.00,BKN,,0.00,WeatherDisplay:10.37,2013-03-16 15:04:00,
2013-03-16 10:09:00,73.2,21.1,30.09,West,270,5.8,5.8,14,0.00,BKN,,0.00,WeatherDisplay:10.37,2013-03-16 15:09:00,
2013-03-16 10:14:00,73.2,21.1,30.09,West,270,9.2,9.2,14,0.00,BKN,,0.00,WeatherDisplay:10.37,2013-03-16 15:14:00,
2013-03-16 10:19:00,73.2,21.1,30.09,West,270,8.1,8.1,14,0.00,BKN,,0.00,WeatherDisplay:10.37,2013-03-16 15:19:00,
2013-03-16 10:24:00,73.0,21.0,30.09,NNW,338,6.9,6.9,14,0.00,SCT,,0.00,WeatherDisplay:10.37,2013-03-16 15:24:00,
2013-03-16 10:29:00,73.6,19.7,30.09,WNW,292,8.1,8.1,13,0.00,SCT,,0.00,WeatherDisplay:10.37,2013-03-16 15:29:00,
2013-03-16 10:34:00,74.5,20.4,30.09,NNW,338,8.1,8.1,13,0.00,SCT,,0.00,WeatherDisplay:10.37,2013-03-16 15:34:00,
2013-03-16 10:39:00,75.2,20.9,30.09,WNW,292,3.5,3.8,13,0.00,SCT,,0.00,WeatherDisplay:10.37,2013-03-16 15:39:00,
2013-03-16 10:44:00,75.6,21.2,30.09,WNW,292,3.5,3.8,13,0.00,SCT,,0.00,WeatherDisplay:10.37,2013-03-16 15:44:00,
2013-03-16 10:49:00,75.9,21.5,30.09,SSW,202,3.5,5.6,13,0.00,SCT,,0.00,WeatherDisplay:10.37,2013-03-16 15:49:00,
2013-03-16 10:54:00,77.2,22.5,30.09,SSW,202,2.9,5.6,13,0.00,SCT,,0.00,WeatherDisplay:10.37,2013-03-16 15:54:00,
2013-03-16 10:59:00,76.6,22.1,30.09,SSW,202,2.9,5.6,13,0.00,SCT,,0.00,WeatherDisplay:10.37,2013-03-16 15:59:00,
2013-03-16 11:04:00,76.1,21.6,30.09,NW,315,4.6,6.0,13,0.00,CLR,,0.00,WeatherDisplay:10.37,2013-03-16 16:04:00,
2013-03-16 11:09:00,73.8,19.8,30.09,WNW,292,5.8,5.8,13,0.00,CLR,,0.00,WeatherDisplay:10.37,2013-03-16 16:09:00,
2013-03-16 11:14:00,72.9,20.8,30.09,NNW,338,3.5,6.9,14,0.00,CLR,,0.00,WeatherDisplay:10.37,2013-03-16 16:14:00,
2013-03-16 11:19:00,74.1,20.1,30.06,NNW,338,3.5,6.9,13,0.00,CLR,,0.00,WeatherDisplay:10.37,2013-03-16 16:19:00,
2013-03-16 11:24:00,74.5,20.4,30.06,West,270,4.6,4.6,13,0.00,CLR,,0.00,WeatherDisplay:10.37,2013-03-16 16:24:00,
2013-03-16 11:29:00,75.2,20.9,30.06,North,0,8.1,8.1,13,0.00,CLR,,0.00,WeatherDisplay:10.37,2013-03-16 16:29:00,
2013-03-16 11:34:00,75.7,21.4,30.09,North,0,4.6,6.2,13,0.00,CLR,,0.00,WeatherDisplay:10.37,2013-03-16 16:34:00,
2013-03-16 11:39:00,77.0,22.4,30.09,North,0,4.6,6.2,13,0.00,CLR,,0.00,WeatherDisplay:10.37,2013-03-16 16:39:00,
2013-03-16 11:44:00,77.7,22.9,30.09,North,0,4.6,6.2,13,0.00,CLR,,0.00,WeatherDisplay:10.37,2013-03-16 16:44:00,
2013-03-16 11:49:00,77.9,23.1,30.09,SE,135,6.9,7.4,13,0.00,CLR,,0.00,WeatherDisplay:10.37,2013-03-16 16:49:00,
2013-03-16 11:54:00,78.3,23.3,30.09,South,180,8.1,8.1,13,0.00,CLR,,0.00,WeatherDisplay:10.37,2013-03-16 16:54:00,
2013-03-16 11:59:00,76.3,21.8,30.09,South,180,5.8,6.2,13,0.00,CLR,,0.00,WeatherDisplay:10.37,2013-03-16 16:59:00,
2013-03-16 12:04:00,76.8,22.2,30.06,South,180,5.8,6.2,13,0.00,CLR,,0.00,WeatherDisplay:10.37,2013-03-16 17:04:00,
2013-03-16 12:09:00,76.8,22.2,30.06,NW,315,9.2,9.2,13,0.00,CLR,,0.00,WeatherDisplay:10.37,2013-03-16 17:09:00,
2013-03-16 12:14:00,77.5,22.8,30.06,NW,315,9.2,9.2,13,0.00,CLR,,0.00,WeatherDisplay:10.37,2013-03-16 17:14:00,
2013-03-16 12:19:00,78.1,23.2,30.06,NW,315,9.2,9.2,13,0.00,CLR,,0.00,WeatherDisplay:10.37,2013-03-16 17:19:00,
2013-03-16 12:25:00,77.7,22.9,30.06,NW,315,9.2,9.2,13,0.00,CLR,,0.00,WeatherDisplay:10.37,2013-03-16 17:25:00,
2013-03-16 12:30:00,78.6,23.6,30.06,NW,315,9.2,9.2,13,0.00,CLR,,0.00,WeatherDisplay:10.37,2013-03-16 17:30:00,
2013-03-16 12:35:00,79.3,22.3,30.06,NW,315,9.2,9.2,12,0.00,CLR,,0.00,WeatherDisplay:10.37,2013-03-16 17:35:00,
2013-03-16 12:40:00,79.2,22.1,30.06,NW,315,9.2,9.2,12,0.00,CLR,,0.00,WeatherDisplay:10.37,2013-03-16 17:40:00,
2013-03-16 12:45:00,79.2,22.1,30.06,NW,315,9.2,9.2,12,0.00,CLR,,0.00,WeatherDisplay:10.37,2013-03-16 17:45:00,
2013-03-16 12:50:00,78.4,23.5,30.06,NW,315,9.2,9.2,13,0.00,CLR,,0.00,WeatherDisplay:10.37,2013-03-16 17:50:00,
2013-03-16 12:55:00,78.1,23.2,30.06,NW,315,9.2,9.2,13,0.00,CLR,,0.00,WeatherDisplay:10.37,2013-03-16 17:55:00,
2013-03-16 13:00:00,80.1,22.8,30.06,NW,315,9.2,9.2,12,0.00,CLR,,0.00,WeatherDisplay:10.37,2013-03-16 18:00:00,
2013-03-16 13:05:00,80.4,23.1,30.03,NW,315,9.2,9.2,12,0.00,CLR,,0.00,WeatherDisplay:10.37,2013-03-16 18:05:00,
2013-03-16 13:10:00,79.0,22.0,30.03,NW,315,9.2,9.2,12,0.00,CLR,,0.00,WeatherDisplay:10.37,2013-03-16 18:10:00,
2013-03-16 13:15:00,78.3,23.3,30.03,NW,315,9.2,9.2,13,0.00,CLR,,0.00,WeatherDisplay:10.37,2013-03-16 18:15:00,
2013-03-16 13:20:00,79.3,22.3,30.03,NW,315,9.2,9.2,12,0.00,CLR,,0.00,WeatherDisplay:10.37,2013-03-16 18:20:00,
2013-03-16 13:25:00,79.5,22.4,30.03,NW,315,9.2,9.2,12,0.00,CLR,,0.00,WeatherDisplay:10.37,2013-03-16 18:25:00,
2013-03-16 13:30:00,80.4,23.1,30.03,NW,315,9.2,9.2,12,0.00,CLR,,0.00,WeatherDisplay:10.37,2013-03-16 18:30:00,
2013-03-16 13:35:00,79.9,22.7,30.03,NW,315,9.2,9.2,12,0.00,CLR,,0.00,WeatherDisplay:10.37,2013-03-16 18:35:00,
2013-03-16 13:40:00,79.2,22.1,30.03,WSW,248,9.2,9.2,12,0.00,CLR,,0.00,WeatherDisplay:10.37,2013-03-16 18:40:00,
2013-03-16 13:45:00,78.3,23.3,30.03,WNW,292,6.9,7.6,13,0.00,CLR,,0.00,WeatherDisplay:10.37,2013-03-16 18:45:00,
2013-03-16 13:50:00,79.3,22.3,30.03,NNW,338,4.6,5.6,12,0.00,CLR,,0.00,WeatherDisplay:10.37,2013-03-16 18:50:00,
2013-03-16 13:55:00,78.6,23.6,30.03,SSE,158,5.8,5.8,13,0.00,CLR,,0.00,WeatherDisplay:10.37,2013-03-16 18:55:00,
2013-03-16 14:00:00,78.4,23.5,30.03,WNW,292,5.9,5.9,13,0.00,CLR,,0.00,WeatherDisplay:10.37,2013-03-16 19:00:00,
2013-03-16 14:05:00,79.2,22.1,30.00,SSW,202,8.7,8.7,12,0.00,CLR,,0.00,WeatherDisplay:10.37,2013-03-16 19:05:00,
2013-03-16 14:10:00,78.3,23.3,30.00,NNE,22,16.1,16.1,13,0.00,CLR,,0.00,WeatherDisplay:10.37,2013-03-16 19:10:00,
2013-03-16 14:15:00,77.7,22.9,30.00,SW,225,9.2,9.2,13,0.00,FEW,,0.00,WeatherDisplay:10.37,2013-03-16 19:15:00,
2013-03-16 14:20:00,77.5,22.8,30.00,SSW,202,9.2,9.2,13,0.00,FEW,,0.00,WeatherDisplay:10.37,2013-03-16 19:20:00,
2013-03-16 14:25:00,78.4,23.5,30.00,WSW,248,6.2,6.2,13,0.00,FEW,,0.00,WeatherDisplay:10.37,2013-03-16 19:25:00,
2013-03-16 14:30:00,79.2,22.1,30.00,West,270,0.0,5.6,12,0.00,FEW,,0.00,WeatherDisplay:10.37,2013-03-16 19:30:00,
2013-03-16 14:35:00,79.5,22.4,29.97,WSW,248,5.8,5.8,12,0.00,FEW,,0.00,WeatherDisplay:10.37,2013-03-16 19:35:00,
2013-03-16 14:40:00,78.6,23.6,29.97,SW,225,9.2,10.2,13,0.00,FEW,,0.00,WeatherDisplay:10.37,2013-03-16 19:40:00,
2013-03-16 14:45:00,78.8,21.9,29.97,WSW,248,6.9,7.1,12,0.00,FEW,,0.00,WeatherDisplay:10.37,2013-03-16 19:45:00,
2013-03-16 14:50:00,79.7,22.6,29.97,WSW,248,6.9,6.9,12,0.00,FEW,,0.00,WeatherDisplay:10.37,2013-03-16 19:50:00,
2013-03-16 14:55:00,79.0,22.0,29.97,WSW,248,5.8,5.8,12,0.00,FEW,,0.00,WeatherDisplay:10.37,2013-03-16 19:55:00,
2013-03-16 15:00:00,78.1,23.2,29.97,East,90,12.7,12.7,13,0.00,FEW,,0.00,WeatherDisplay:10.37,2013-03-16 20:00:00,
2013-03-16 15:05:00,79.2,22.1,29.97,South,180,10.4,10.4,12,0.00,FEW,,0.00,WeatherDisplay:10.37,2013-03-16 20:05:00,
2013-03-16 15:10:00,80.6,23.3,29.97,SW,225,3.5,4.5,12,0.00,FEW,,0.00,WeatherDisplay:10.37,2013-03-16 20:10:00,
2013-03-16 15:15:00,81.0,23.5,29.97,West,270,8.1,8.1,12,0.00,FEW,,0.00,WeatherDisplay:10.37,2013-03-16 20:15:00,
2013-03-16 15:20:00,81.0,23.5,29.97,SSW,202,6.9,6.9,12,0.00,FEW,,0.00,WeatherDisplay:10.37,2013-03-16 20:20:00,
2013-03-16 15:25:00,79.3,22.3,29.97,SSW,202,13.8,13.8,12,0.00,FEW,,0.00,WeatherDisplay:10.37,2013-03-16 20:25:00,
2013-03-16 15:30:00,80.6,23.3,29.97,West,270,8.1,8.1,12,0.00,FEW,,0.00,WeatherDisplay:10.37,2013-03-16 20:30:00,
2013-03-16 15:35:00,81.1,23.7,29.97,WNW,292,5.8,5.8,12,0.00,FEW,,0.00,WeatherDisplay:10.37,2013-03-16 20:35:00,
2013-03-16 15:40:00,80.4,23.1,29.97,SW,225,5.8,5.8,12,0.00,FEW,,0.00,WeatherDisplay:10.37,2013-03-16 20:40:00,
2013-03-16 15:45:00,81.1,23.7,29.97,East,90,8.1,8.1,12,0.00,FEW,,0.00,WeatherDisplay:10.37,2013-03-16 20:45:00,
2013-03-16 15:50:00,79.9,22.7,29.97,SSW,202,10.4,10.4,12,0.00,FEW,,0.00,WeatherDisplay:10.37,2013-03-16 20:50:00,
2013-03-16 15:55:00,80.6,23.3,29.97,NW,315,9.2,9.2,12,0.00,FEW,,0.00,WeatherDisplay:10.37,2013-03-16 20:55:00,
2013-03-16 16:00:00,80.6,23.3,29.97,SSW,202,9.2,9.2,12,0.00,FEW,,0.00,WeatherDisplay:10.37,2013-03-16 21:00:00,
2013-03-16 16:05:00,80.4,23.1,29.94,WSW,248,5.8,6.7,12,0.00,FEW,,0.00,WeatherDisplay:10.37,2013-03-16 21:05:00,
2013-03-16 16:10:00,78.3,23.3,29.94,WSW,248,12.7,12.7,13,0.00,FEW,,0.00,WeatherDisplay:10.37,2013-03-16 21:10:00,
2013-03-16 16:15:00,76.5,21.9,29.94,ESE,112,11.5,11.5,13,0.00,FEW,,0.00,WeatherDisplay:10.37,2013-03-16 21:15:00,
2013-03-16 16:20:00,77.4,22.6,29.94,NNE,22,5.8,5.8,13,0.00,FEW,,0.00,WeatherDisplay:10.37,2013-03-16 21:20:00,
2013-03-16 16:25:00,75.7,21.4,29.94,NNE,22,2.3,4.0,13,0.00,FEW,,0.00,WeatherDisplay:10.37,2013-03-16 21:25:00,
2013-03-16 16:30:00,75.6,21.2,29.94,SW,225,5.8,5.8,13,0.00,FEW,,0.00,WeatherDisplay:10.37,2013-03-16 21:30:00,
2013-03-16 16:35:00,75.9,21.5,29.94,SW,225,5.8,5.8,13,0.00,FEW,,0.00,WeatherDisplay:10.37,2013-03-16 21:35:00,
2013-03-16 16:40:00,76.5,21.9,29.94,WNW,292,8.1,8.1,13,0.00,FEW,,0.00,WeatherDisplay:10.37,2013-03-16 21:40:00,
2013-03-16 16:45:00,75.9,21.5,29.94,West,270,2.3,3.6,13,0.00,FEW,,0.00,WeatherDisplay:10.37,2013-03-16 21:45:00,
2013-03-16 16:50:00,75.6,21.2,29.94,SSE,158,11.5,11.5,13,0.00,FEW,,0.00,WeatherDisplay:10.37,2013-03-16 21:50:00,
2013-03-16 16:55:00,75.7,21.4,29.94,WSW,248,6.9,6.9,13,0.00,FEW,,0.00,WeatherDisplay:10.37,2013-03-16 21:55:00,
2013-03-16 17:00:00,76.3,21.8,29.94,South,180,4.6,4.6,13,0.00,FEW,,0.00,WeatherDisplay:10.37,2013-03-16 22:00:00,
2013-03-16 17:05:00,75.4,21.1,29.91,ENE,68,2.3,5.4,13,0.00,FEW,,0.00,WeatherDisplay:10.37,2013-03-16 22:05:00,
2013-03-16 17:11:00,74.1,20.1,29.91,East,90,8.1,8.1,13,0.00,CLR,,0.00,WeatherDisplay:10.37,2013-03-16 22:11:00,
2013-03-16 17:16:00,73.6,19.7,29.91,South,180,3.5,4.0,13,0.00,CLR,,0.00,WeatherDisplay:10.37,2013-03-16 22:16:00,
2013-03-16 17:21:00,73.8,19.8,29.91,South,180,6.9,6.9,13,0.00,CLR,,0.00,WeatherDisplay:10.37,2013-03-16 22:21:00,
2013-03-16 17:26:00,73.2,21.1,29.91,South,180,6.9,6.9,14,0.00,CLR,,0.00,WeatherDisplay:10.37,2013-03-16 22:26:00,
2013-03-16 17:31:00,74.1,20.1,29.91,South,180,6.9,6.9,13,0.00,CLR,,0.00,WeatherDisplay:10.37,2013-03-16 22:31:00,
2013-03-16 17:36:00,74.1,20.1,29.91,South,180,5.8,7.6,13,0.00,CLR,,0.00,WeatherDisplay:10.37,2013-03-16 22:36:00,
2013-03-16 17:41:00,73.6,19.7,29.91,South,180,5.8,7.6,13,0.00,CLR,,0.00,WeatherDisplay:10.37,2013-03-16 22:41:00,
2013-03-16 17:46:00,73.4,19.5,29.91,South,180,5.8,7.6,13,0.00,CLR,,0.00,WeatherDisplay:10.37,2013-03-16 22:46:00,
2013-03-16 17:51:00,72.9,20.8,29.91,South,180,5.8,7.6,14,0.00,CLR,,0.00,WeatherDisplay:10.37,2013-03-16 22:51:00,
2013-03-16 17:56:00,72.7,20.7,29.91,South,180,5.8,7.6,14,0.00,CLR,,0.00,WeatherDisplay:10.37,2013-03-16 22:56:00,
2013-03-16 18:01:00,73.4,19.5,29.91,South,180,5.8,7.6,13,0.00,CLR,,0.00,WeatherDisplay:10.37,2013-03-16 23:01:00,
2013-03-16 18:07:00,72.3,20.4,29.91,South,180,6.0,7.6,14,0.00,CLR,,0.00,WeatherDisplay:10.37,2013-03-16 23:07:00,
2013-03-16 18:12:00,72.0,20.1,29.91,South,180,5.8,7.6,14,0.00,CLR,,0.00,WeatherDisplay:10.37,2013-03-16 23:12:00,
2013-03-16 18:17:00,71.2,19.5,29.91,South,180,6.0,7.6,14,0.00,CLR,,0.00,WeatherDisplay:10.37,2013-03-16 23:17:00,
2013-03-16 18:22:00,70.7,19.1,29.91,South,180,6.0,7.6,14,0.00,CLR,,0.00,WeatherDisplay:10.37,2013-03-16 23:22:00,
2013-03-16 18:27:00,70.3,18.8,29.91,South,180,5.8,7.6,14,0.00,CLR,,0.00,WeatherDisplay:10.37,2013-03-16 23:27:00,
2013-03-16 18:32:00,70.0,18.5,29.94,South,180,5.8,7.6,14,0.00,CLR,,0.00,WeatherDisplay:10.37,2013-03-16 23:32:00,
2013-03-16 18:37:00,69.8,18.4,29.94,South,180,6.0,7.6,14,0.00,CLR,,0.00,WeatherDisplay:10.37,2013-03-16 23:37:00,
2013-03-16 18:42:00,69.6,19.9,29.94,South,180,6.0,7.6,15,0.00,CLR,,0.00,WeatherDisplay:10.37,2013-03-16 23:42:00,
2013-03-16 18:47:00,69.4,19.7,29.91,South,180,5.8,7.6,15,0.00,CLR,,0.00,WeatherDisplay:10.37,2013-03-16 23:47:00,
2013-03-16 18:52:00,69.1,19.4,29.91,South,180,5.8,7.6,15,0.00,CLR,,0.00,WeatherDisplay:10.37,2013-03-16 23:52:00,
2013-03-16 18:57:00,68.7,19.1,29.91,South,180,5.8,7.6,15,0.00,CLR,,0.00,WeatherDisplay:10.37,2013-03-16 23:57:00,
2013-03-16 19:02:00,68.5,19.0,29.91,South,180,5.8,7.6,15,0.00,CLR,,0.00,WeatherDisplay:10.37,2013-03-17 00:02:00,
2013-03-16 19:07:00,68.2,18.7,29.91,WNW,292,1.2,2.0,15,0.00,CLR,,0.00,WeatherDisplay:10.37,2013-03-17 00:07:00,
2013-03-16 19:12:00,67.8,18.4,29.91,WNW,292,1.2,2.0,15,0.00,CLR,,0.00,WeatherDisplay:10.37,2013-03-17 00:12:00,
2013-03-16 19:17:00,67.6,18.3,29.91,WNW,292,1.2,2.0,15,0.00,CLR,,0.00,WeatherDisplay:10.37,2013-03-17 00:17:00,
2013-03-16 19:22:00,67.6,18.3,29.91,WNW,292,1.2,2.0,15,0.00,CLR,,0.00,WeatherDisplay:10.37,2013-03-17 00:22:00,
2013-03-16 19:27:00,67.3,18.0,29.91,WNW,292,1.2,2.0,15,0.00,CLR,,0.00,WeatherDisplay:10.37,2013-03-17 00:27:00,
2013-03-16 19:32:00,67.3,18.0,29.94,WNW,292,1.2,2.0,15,0.00,CLR,,0.00,WeatherDisplay:10.37,2013-03-17 00:32:00,
2013-03-16 19:37:00,67.1,17.8,29.94,WNW,292,1.2,2.0,15,0.00,CLR,,0.00,WeatherDisplay:10.37,2013-03-17 00:37:00,
2013-03-16 19:42:00,66.9,17.7,29.94,WNW,292,1.6,2.0,15,0.00,CLR,,0.00,WeatherDisplay:10.37,2013-03-17 00:42:00,
2013-03-16 19:47:00,66.7,20.5,29.94,WNW,292,1.2,2.0,17,0.00,CLR,,0.00,WeatherDisplay:10.37,2013-03-17 00:47:00,
2013-03-16 19:52:00,66.6,20.3,29.94,WNW,292,1.2,2.0,17,0.00,CLR,,0.00,WeatherDisplay:10.37,2013-03-17 00:52:00,
2013-03-16 19:57:00,66.2,20.0,29.94,WNW,292,1.2,2.0,17,0.00,CLR,,0.00,WeatherDisplay:10.37,2013-03-17 00:57:00,
2013-03-16 20:02:00,66.0,21.2,29.91,WNW,292,1.2,2.0,18,0.00,CLR,,0.00,WeatherDisplay:10.37,2013-03-17 01:02:00,
2013-03-16 20:08:00,65.7,21.0,29.91,WNW,292,1.2,2.0,18,0.00,CLR,,0.00,WeatherDisplay:10.37,2013-03-17 01:08:00,
2013-03-16 20:13:00,65.7,21.0,29.91,South,180,2.3,2.3,18,0.00,CLR,,0.00,WeatherDisplay:10.37,2013-03-17 01:13:00,
2013-03-16 20:18:00,65.3,20.7,29.91,SSW,202,1.2,1.4,18,0.00,CLR,,0.00,WeatherDisplay:10.37,2013-03-17 01:18:00,
2013-03-16 20:23:00,65.1,23.0,29.91,WSW,248,4.6,4.6,20,0.00,CLR,,0.00,WeatherDisplay:10.37,2013-03-17 01:23:00,
2013-03-16 20:28:00,64.9,22.9,29.91,South,180,1.2,2.6,20,0.00,CLR,,0.00,WeatherDisplay:10.37,2013-03-17 01:28:00,
2013-03-16 20:33:00,64.6,22.6,29.94,South,180,1.2,2.6,20,0.00,CLR,,0.00,WeatherDisplay:10.37,2013-03-17 01:33:00,
2013-03-16 20:38:00,64.4,25.8,29.94,South,180,1.2,2.6,23,0.00,CLR,,0.00,WeatherDisplay:10.37,2013-03-17 01:38:00,
2013-03-16 20:43:00,64.4,25.8,29.94,South,180,1.2,2.6,23,0.00,CLR,,0.00,WeatherDisplay:10.37,2013-03-17 01:43:00,
2013-03-16 20:48:00,64.0,26.5,29.94,South,180,1.2,2.6,24,0.00,CLR,,0.00,WeatherDisplay:10.37,2013-03-17 01:48:00,
2013-03-16 20:53:00,63.9,26.3,29.94,South,180,1.4,2.6,24,0.00,CLR,,0.00,WeatherDisplay:10.37,2013-03-17 01:53:00,
2013-03-16 20:58:00,63.9,26.3,29.94,South,180,1.4,2.6,24,0.00,CLR,,0.00,WeatherDisplay:10.37,2013-03-17 01:58:00,
2013-03-16 21:03:00,63.9,26.3,29.94,South,180,1.4,2.6,24,0.00,CLR,,0.00,WeatherDisplay:10.37,2013-03-17 02:03:00,
2013-03-16 21:08:00,64.2,28.6,29.94,South,180,1.2,2.6,26,0.00,CLR,,0.00,WeatherDisplay:10.37,2013-03-17 02:08:00,
2013-03-16 21:13:00,64.2,28.6,29.94,South,180,1.2,2.6,26,0.00,CLR,,0.00,WeatherDisplay:10.37,2013-03-17 02:13:00,
2013-03-16 21:18:00,64.4,28.7,29.94,South,180,1.4,2.6,26,0.00,CLR,,0.00,WeatherDisplay:10.37,2013-03-17 02:18:00,
2013-03-16 21:23:00,64.4,28.7,29.94,South,180,1.4,2.6,26,0.00,CLR,,0.00,WeatherDisplay:10.37,2013-03-17 02:23:00,
2013-03-16 21:28:00,64.4,28.7,29.94,South,180,1.4,2.6,26,0.00,CLR,,0.00,WeatherDisplay:10.37,2013-03-17 02:28:00,
2013-03-16 21:33:00,64.4,28.7,29.94,South,180,1.2,2.6,26,0.00,CLR,,0.00,WeatherDisplay:10.37,2013-03-17 02:33:00,
2013-03-16 21:38:00,64.6,28.9,29.94,South,180,1.2,2.6,26,0.00,CLR,,0.00,WeatherDisplay:10.37,2013-03-17 02:38:00,
2013-03-16 21:43:00,64.9,29.2,29.94,South,180,1.2,2.6,26,0.00,CLR,,0.00,WeatherDisplay:10.37,2013-03-17 02:43:00,
2013-03-16 21:48:00,65.1,29.4,29.94,South,180,1.2,2.6,26,0.00,CLR,,0.00,WeatherDisplay:10.37,2013-03-17 02:48:00,
2013-03-16 21:53:00,64.9,28.2,29.94,South,180,1.2,2.6,25,0.00,CLR,,0.00,WeatherDisplay:10.37,2013-03-17 02:53:00,
2013-03-16 21:58:00,65.1,28.4,29.94,South,180,1.2,2.6,25,0.00,CLR,,0.00,WeatherDisplay:10.37,2013-03-17 02:58:00,
2013-03-16 22:03:00,64.9,28.2,29.94,South,180,1.2,2.6,25,0.00,CLR,,0.00,WeatherDisplay:10.37,2013-03-17 03:03:00,
2013-03-16 22:08:00,64.9,28.2,29.94,South,180,1.2,2.6,25,0.00,CLR,,0.00,WeatherDisplay:10.37,2013-03-17 03:08:00,
2013-03-16 22:13:00,64.9,28.2,29.94,South,180,1.2,2.6,25,0.00,CLR,,0.00,WeatherDisplay:10.37,2013-03-17 03:13:00,
2013-03-16 22:18:00,64.9,28.2,29.94,South,180,1.2,2.6,25,0.00,CLR,,0.00,WeatherDisplay:10.37,2013-03-17 03:18:00,
2013-03-16 22:23:00,64.8,28.1,29.94,South,180,1.4,2.6,25,0.00,CLR,,0.00,WeatherDisplay:10.37,2013-03-17 03:23:00,
2013-03-16 22:28:00,64.6,27.9,29.94,South,180,1.4,2.6,25,0.00,CLR,,0.00,WeatherDisplay:10.37,2013-03-17 03:28:00,
2013-03-16 22:33:00,64.6,28.9,29.94,South,180,1.4,2.6,26,0.00,CLR,,0.00,WeatherDisplay:10.37,2013-03-17 03:33:00,
2013-03-16 22:38:00,64.6,28.9,29.94,South,180,1.4,2.6,26,0.00,CLR,,0.00,WeatherDisplay:10.37,2013-03-17 03:38:00,
2013-03-16 22:43:00,64.4,29.7,29.94,South,180,1.4,2.6,27,0.00,CLR,,0.00,WeatherDisplay:10.37,2013-03-17 03:43:00,
2013-03-16 22:48:00,64.6,29.8,29.94,South,180,1.4,2.6,27,0.00,CLR,,0.00,WeatherDisplay:10.37,2013-03-17 03:48:00,
2013-03-16 22:53:00,64.6,29.8,29.94,South,180,1.4,2.6,27,0.00,CLR,,0.00,WeatherDisplay:10.37,2013-03-17 03:53:00,
2013-03-16 22:58:00,64.4,29.7,29.94,South,180,1.4,2.6,27,0.00,CLR,,0.00,WeatherDisplay:10.37,2013-03-17 03:58:00,
2013-03-16 23:00:00,64.4,29.7,29.94,South,180,1.2,2.6,27,0.00,CLR,,0.00,WeatherDisplay:10.37,2013-03-17 04:00:00,
2013-03-16 23:05:00,64.2,30.4,29.94,South,180,1.2,2.6,28,0.00,CLR,,0.00,WeatherDisplay:10.37,2013-03-17 04:05:00,
2013-03-16 23:10:00,64.2,31.3,29.94,South,180,1.2,2.6,29,0.00,CLR,,0.00,WeatherDisplay:10.37,2013-03-17 04:10:00,
2013-03-16 23:15:00,64.2,31.3,29.94,South,180,1.2,2.6,29,0.00,CLR,,0.00,WeatherDisplay:10.37,2013-03-17 04:15:00,
2013-03-16 23:20:00,64.2,31.3,29.94,South,180,1.2,2.6,29,0.00,CLR,,0.00,WeatherDisplay:10.37,2013-03-17 04:20:00,
2013-03-16 23:25:00,64.2,31.3,29.94,South,180,1.2,2.6,29,0.00,CLR,,0.00,WeatherDisplay:10.37,2013-03-17 04:25:00,
2013-03-16 23:30:00,64.2,31.3,29.94,South,180,1.2,2.6,29,0.00,CLR,,0.00,WeatherDisplay:10.37,2013-03-17 04:30:00,
2013-03-16 23:35:00,64.2,31.3,29.94,South,180,1.2,2.6,29,0.00,CLR,,0.00,WeatherDisplay:10.37,2013-03-17 04:35:00,
2013-03-16 23:40:00,64.2,31.3,29.94,South,180,1.2,2.6,29,0.00,CLR,,0.00,WeatherDisplay:10.37,2013-03-17 04:40:00,
2013-03-16 23:45:00,64.2,31.3,29.94,South,180,1.2,2.6,29,0.00,CLR,,0.00,WeatherDisplay:10.37,2013-03-17 04:45:00,
2013-03-16 23:50:00,64.2,31.3,29.91,South,180,1.2,2.6,29,0.00,CLR,,0.00,WeatherDisplay:10.37,2013-03-17 04:50:00,
2013-03-16 23:55:00,64.2,31.3,29.91,South,180,1.4,2.6,29,0.00,CLR,,0.00,WeatherDisplay:10.37,2013-03-17 04:55:00,